{"data":{"norad_id":63838,"epoch":"2026-05-24T23:26:32.381088Z","epoch_age_seconds":87803,"freshness":"FRESH","line1":"1 63838U 25093C   26144.97676367  .00026479  00000+0  96789-3 0  9994","line2":"2 63838  43.0028   3.2344 0001396 260.7661  99.3033 15.27593919 59686","mean_motion":15.27593919,"eccentricity":0.0001396,"inclination_deg":43.0028,"raan_deg":3.2344,"arg_perigee_deg":260.7661,"mean_anomaly_deg":99.3033,"bstar":0.00096789,"rev_number":5968,"period_min":94.26588978193,"perigee_km":482.04960210205,"apogee_km":483.96523362352,"semimajor_km":6861.1444178628,"source":"CELESTRAK","updated_at":"2026-05-25T13:38:20.146198Z"}}